User: anonymous   Login
Location: Roanoke
(37.2710°N, 79.9420°W)
Time: 11:53:41
(UTC-05:00)
Language:

FENGYUN 3A - Orbit

View from above orbital plane
View from above orbital plane
View from above satellite
View from above satellite

Ground track
Ground track

The orbit data is extracted from the following two-line orbital elements,

1 32958U 08026A   14332.15525089  .00000166  00000-0  98871-4 0  5773
2 32958 098.5340 025.2890 0010523 101.5744 258.6601 14.19497164337105
Epoch (UTC): 28 November 2014 03:43:33
Eccentricity: 0.0010523
inclination: 98.5340°
perigee height: 819 km
apogee height: 834 km
right ascension of ascending node: 25.2890°
argument of perigee: 101.5744°
revolutions per day: 14.19497164
mean anomaly at epoch: 258.6601°
orbit number at epoch: 33710

The dashed part of the orbit path shows where the satellite is in the earth's shadow,  

DLR